CW1461 Weather Reports


Display with metric or nautical units.
time (UTC)temp
F
wind
direction
speed
MPH
gust
MPH
rain 1hr
in
rain 24hr
in
rain mn
in
humidity
%
barometer
mb
20170920182110 61 180 3.0 8.0 0.01 0.01 0.01 84 1010.1
20170920181111 61 195 3.0 10.0 0.01 0.01 0.01 83 1010.2
20170920180110 61 162 3.0 10.0 0.01 0.01 0.01 83 1010.2
20170920175111 62 169 3.0 7.0 0.01 0.01 0.01 82 1010.3
20170920174110 62 171 3.0 9.0 0.00 0.00 0.00 81 1010.3
20170920173110 63 171 3.0 9.0 0.00 0.00 0.00 80 1010.4
20170920170111 63 183 4.0 10.0 0.00 0.00 0.00 77 1010.5
20170920164111 63 129 3.0 7.0 0.00 0.00 0.00 77 1010.6
20170920162111 64 171 3.0 10.0 0.00 0.00 0.00 77 1010.9
20170920161110 64 184 2.0 7.0 0.00 0.00 0.00 77 1010.9
20170920160111 64 130 2.0 8.0 0.00 0.00 0.00 77 1011.0
20170920155111 64 165 3.0 7.0 0.00 0.00 0.00 76 1011.0
20170920154111 64 147 3.0 9.0 0.00 0.00 0.00 76 1011.1
20170920153111 64 211 4.0 14.0 0.00 0.00 0.00 75 1011.3
20170920145111 65 165 2.0 10.0 0.00 0.00 0.00 77 1011.6
20170920144110 65 258 4.0 14.0 0.00 0.00 0.00 76 1011.7
20170920143111 64 242 4.0 9.0 0.00 0.00 0.00 77 1011.9
20170920142110 64 239 3.0 10.0 0.00 0.00 0.00 77 1011.9
20170920141111 64 174 1.0 7.0 0.00 0.00 0.00 79 1011.9
20170920135110 64 168 2.0 12.0 0.00 0.00 0.00 79 1012.1
20170920134110 64 248 2.0 6.0 0.00 0.00 0.00 79 1012.1
20170920133111 64 166 3.0 12.0 0.00 0.00 0.00 79 1012.0
20170920131111 63 159 3.0 9.0 0.00 0.00 0.00 80 1012.1
20170920130110 63 202 2.0 9.0 0.00 0.00 0.00 81 1012.2
20170920125111 63 178 1.0 8.0 0.00 0.00 0.00 81 1012.3
20170920124110 63 174 2.0 9.0 0.00 0.00 0.00 80 1012.3
20170920123110 63 198 3.0 9.0 0.00 0.00 0.00 79 1012.4
20170920121111 64 281 4.0 9.0 0.00 0.00 0.00 78 1012.4
20170920120111 64 241 2.0 9.0 0.00 0.00 0.00 79 1012.5
20170920115110 63 169 3.0 10.0 0.00 0.00 0.00 80 1012.7
20170920114111 63 189 2.0 13.0 0.00 0.00 0.00 81 1012.7
20170920113110 62 192 4.0 10.0 0.00 0.00 0.00 80 1012.7
20170920112110 62 184 3.0 12.0 0.00 0.00 0.00 81 1012.9
20170920111111 62 205 5.0 13.0 0.00 0.00 0.00 81 1012.9
20170920110112 62 187 5.0 10.0 0.00 0.00 0.00 81 1013.0
20170920105110 62 160 2.0 9.0 0.00 0.00 0.00 81 1013.0
20170920104111 62 253 5.0 12.0 0.00 0.00 0.00 82 1013.0
20170920103110 61 193 4.0 9.0 0.00 0.00 0.00 83 1013.1
20170920102110 60 216 3.0 8.0 0.00 0.00 0.00 83 1013.2
20170920095110 60 165 3.0 10.0 0.00 0.00 0.00 82 1013.4
20170920094111 60 183 2.0 7.0 0.00 0.00 0.00 83 1013.4
20170920093111 60 257 3.0 9.0 0.00 0.00 0.00 83 1013.5
20170920092110 59 211 2.0 8.0 0.00 0.00 0.00 85 1013.5
20170920085112 56 175 3.0 8.0 0.00 0.00 0.00 90 1013.9
20170920083110 55 205 2.0 5.0 0.00 0.00 0.00 92 1013.9
20170920082111 55 248 2.0 5.0 0.00 0.00 0.00 93 1014.0
20170920075110 54 155 0.0 5.0 0.00 0.00 0.00 93 1013.9
20170920074111 54 208 1.0 3.0 0.00 0.00 0.00 93 1014.0
20170920073111 53 219 1.0 6.0 0.00 0.00 0.00 93 1014.0
20170920072110 53 273 1.0 6.0 0.00 0.00 0.00 94 1013.9
20170920071110 53 232 2.0 3.0 0.00 0.00 0.00 94 1013.9
20170920070111 53 221 0.0 3.0 0.00 0.00 0.00 94 1014.2
20170920065111 52 231 1.0 5.0 0.00 0.00 0.00 94 1014.2
20170920064110 52 186 1.0 7.0 0.00 0.00 0.00 94 1014.1
20170920063111 52 209 1.0 6.0 0.00 0.00 0.00 94 1014.2
20170920061110 51 184 2.0 5.0 0.00 0.00 0.00 94 1014.3
20170920060110 51 202 1.0 3.0 0.00 0.00 0.00 94 1014.4
20170920055111 51 192 1.0 5.0 0.00 0.00 0.00 94 1014.5
20170920054111 50 202 2.0 3.0 0.00 0.00 0.00 94 1014.5
20170920052110 49 169 0.0 3.0 0.00 0.00 0.00 94 1014.7
20170920051110 49 185 1.0 3.0 0.00 0.00 0.00 94 1014.7
20170920050111 48 215 1.0 3.0 0.00 0.00 0.00 94 1014.7
20170920045111 48 223 1.0 3.0 0.00 0.00 0.00 93 1014.9
20170920044111 48 198 0.0 2.0 0.00 0.00 0.00 93 1014.9
20170920043111 47 225 0.0 1.0 0.00 0.00 0.00 93 1015.0
20170920042110 47 225 0.0 1.0 0.00 0.00 0.00 93 1015.0
20170920041111 47 225 0.0 1.0 0.00 0.00 0.00 93 1015.0
20170920035111 47 225 0.0 0.0 0.00 0.00 0.00 93 1015.3
20170920034110 47 225 0.0 0.0 0.00 0.00 0.00 93 1015.4
20170920033111 47 225 0.0 1.0 0.00 0.00 0.00 93 1015.5
20170920032110 47 225 0.0 2.0 0.00 0.00 0.00 93 1015.5
20170920030110 47 225 0.0 2.0 0.00 0.00 0.00 92 1015.6
20170920025110 47 225 0.0 1.0 0.00 0.00 0.00 92 1015.6
20170920023111 47 225 0.0 3.0 0.00 0.00 0.00 92 1015.8
20170920022110 46 225 0.0 2.0 0.00 0.00 0.00 92 1015.8
20170920021110 46 225 1.0 2.0 0.00 0.00 0.00 91 1015.9
20170920020111 46 225 0.0 0.0 0.00 0.00 0.00 91 1016.0
20170920015111 46 225 0.0 0.0 0.00 0.00 0.00 91 1016.0
20170920014110 46 225 0.0 1.0 0.00 0.00 0.00 91 1016.1
20170920012111 46 225 0.0 0.0 0.00 0.00 0.00 90 1016.2
20170920011111 46 225 0.0 0.0 0.00 0.00 0.00 90 1016.2
20170920010111 46 225 0.0 0.0 0.00 0.00 0.00 90 1016.3
20170920005110 46 225 0.0 1.0 0.00 0.00 0.00 90 1016.5
20170920003111 47 225 0.0 2.0 0.00 0.00 0.00 90 1016.7
20170920002110 47 225 0.0 1.0 0.00 0.00 0.00 90 1016.7
20170920000111 47 225 0.0 2.0 0.00 0.00 0.00 89 1016.8
20170919235110 47 225 0.0 1.0 0.00 0.00 0.00 89 1016.7
20170919234111 47 225 0.0 1.0 0.00 0.00 0.00 89 1016.8
20170919233110 47 225 0.0 1.0 0.00 0.00 0.00 88 1016.8
20170919232111 48 225 0.0 1.0 0.00 0.00 0.00 88 1017.0
20170919231116 48 225 0.0 0.0 0.00 0.00 0.00 88 1017.1
20170919224111 49 225 0.0 1.0 0.00 0.00 0.00 87 1017.3
20170919223111 49 225 0.0 1.0 0.00 0.00 0.00 87 1017.4
20170919221111 49 226 0.0 2.0 0.00 0.00 0.00 87 1017.4
20170919215110 50 229 0.0 3.0 0.00 0.00 0.00 86 1017.5
20170919213111 50 223 0.0 3.0 0.00 0.00 0.00 85 1017.6
20170919211110 51 228 0.0 2.0 0.00 0.00 0.00 84 1017.6
20170919205110 52 227 0.0 2.0 0.00 0.00 0.00 83 1017.7
20170919204111 52 227 0.0 2.0 0.00 0.00 0.00 83 1017.8
20170919203110 52 238 0.0 3.0 0.00 0.00 0.00 83 1017.8
20170919201111 53 227 1.0 5.0 0.00 0.00 0.00 81 1017.9
20170919200110 53 199 1.0 3.0 0.00 0.00 0.00 81 1017.9
20170919195111 54 230 2.0 3.0 0.00 0.00 0.00 80 1017.9
20170919194110 54 252 2.0 3.0 0.00 0.00 0.00 79 1017.9
20170919192111 55 251 3.0 6.0 0.00 0.00 0.00 76 1017.9
20170919191111 55 230 2.0 5.0 0.00 0.00 0.00 75 1017.9
20170919183111 57 257 1.0 5.0 0.00 0.00 0.00 71 1017.7